CW4240 Weather Reports


Display with metric or nautical units.
time (UTC)temp
F
wind
direction
speed
MPH
gust
MPH
rain 1hr
in
rain 24hr
in
rain mn
in
humidity
%
barometer
mb
20221209221808 56 44 0.0 2.0 0.00 0.00 0.00 36 1016.5
20221209221302 56 44 0.0 4.0 0.00 0.00 0.00 36 1016.5
20221209220815 56 44 2.0 4.0 0.00 0.00 0.00 35 1016.5
20221209220313 56 33 0.0 6.0 0.00 0.00 0.00 35 1016.5
20221209215807 56 46 3.0 6.0 0.00 0.00 0.00 35 1016.4
20221209215300 55 47 0.0 7.0 0.00 0.00 0.00 35 1016.4
20221209214836 55 48 0.0 7.0 0.00 0.00 0.00 35 1016.4
20221209214311 55 48 0.0 7.0 0.00 0.00 0.00 36 1016.4
20221209213805 54 44 3.0 7.0 0.00 0.00 0.00 37 1016.4
20221209213302 54 43 0.0 9.0 0.00 0.00 0.00 36 1016.4
20221209212814 54 43 3.0 9.0 0.00 0.00 0.00 36 1016.3
20221209212312 54 45 4.0 8.0 0.00 0.00 0.00 36 1016.3
20221209211805 54 51 4.0 9.0 0.00 0.00 0.00 35 1016.3
20221209211318 54 53 5.0 10.0 0.00 0.00 0.00 35 1016.3
20221209210811 54 52 5.0 10.0 0.00 0.00 0.00 35 1016.3
20221209210307 54 49 5.0 7.0 0.00 0.00 0.00 35 1016.3
20221209205800 53 47 3.0 9.0 0.00 0.00 0.00 36 1016.5
20221209205314 53 45 4.0 9.0 0.00 0.00 0.00 36 1016.5
20221209204828 53 42 4.0 9.0 0.00 0.00 0.00 35 1016.5
20221209204304 53 30 4.0 9.0 0.00 0.00 0.00 35 1016.8
20221209203756 53 44 4.0 9.0 0.00 0.00 0.00 36 1016.8
20221209203314 52 41 4.0 11.0 0.00 0.00 0.00 36 1016.8
20221209202807 52 39 3.0 11.0 0.00 0.00 0.00 37 1016.8
20221209202300 52 41 2.0 10.0 0.00 0.00 0.00 37 1016.8
20221209201814 51 39 3.0 10.0 0.00 0.00 0.00 38 1016.8
20221209201309 51 28 7.0 10.0 0.00 0.00 0.00 38 1016.8
20221209200803 51 47 4.0 9.0 0.00 0.00 0.00 38 1016.8
20221209200301 51 46 5.0 9.0 0.00 0.00 0.00 39 1016.8
20221209195817 51 28 5.0 9.0 0.00 0.00 0.00 39 1017.2
20221209195330 51 39 3.0 9.0 0.00 0.00 0.00 40 1017.2
20221209194803 51 40 4.0 6.0 0.00 0.00 0.00 40 1017.2
20221209194317 51 42 3.0 5.0 0.00 0.00 0.00 40 1017.4
20221209193810 51 31 2.0 7.0 0.00 0.00 0.00 40 1017.4
20221209193306 51 45 4.0 7.0 0.00 0.00 0.00 40 1017.4
20221209192800 51 37 4.0 7.0 0.00 0.00 0.00 40 1017.3
20221209192320 51 49 4.0 7.0 0.00 0.00 0.00 39 1017.3
20221209191812 51 49 3.0 8.0 0.00 0.00 0.00 39 1017.3
20221209191306 51 49 3.0 8.0 0.00 0.00 0.00 39 1017.3
20221209190800 51 48 3.0 7.0 0.00 0.00 0.00 39 1017.3
20221209190312 51 48 3.0 5.0 0.00 0.00 0.00 39 1017.3
20221209185805 51 46 3.0 5.0 0.00 0.00 0.00 39 1017.9
20221209185258 50 43 3.0 7.0 0.00 0.00 0.00 40 1017.9
20221209184815 50 42 3.0 9.0 0.00 0.00 0.00 40 1017.9
20221209184313 50 34 3.0 9.0 0.00 0.00 0.00 41 1018.3
20221209183806 50 24 1.0 9.0 0.00 0.00 0.00 41 1018.3
20221209183300 50 31 5.0 9.0 0.00 0.00 0.00 41 1018.3
20221209182833 50 22 0.0 9.0 0.00 0.00 0.00 41 1018.2
20221209182305 50 23 4.0 9.0 0.00 0.00 0.00 40 1018.2
20221209181802 50 26 3.0 7.0 0.00 0.00 0.00 40 1018.2
20221209181315 50 27 4.0 10.0 0.00 0.00 0.00 40 1018.1
20221209180808 50 38 5.0 7.0 0.00 0.00 0.00 40 1018.1
20221209180305 50 42 5.0 7.0 0.00 0.00 0.00 40 1018.1
20221209175801 50 42 5.0 7.0 0.00 0.00 0.00 40 1018.4
20221209175337 50 30 4.0 7.0 0.00 0.00 0.00 41 1018.4
20221209174809 50 28 4.0 9.0 0.00 0.00 0.00 41 1018.4
20221209174305 49 36 3.0 9.0 0.00 0.00 0.00 42 1018.9
20221209173819 49 46 3.0 7.0 0.00 0.00 0.00 42 1018.9
20221209173312 49 33 3.0 7.0 0.00 0.00 0.00 42 1018.9
20221209172805 48 47 3.0 9.0 0.00 0.00 0.00 43 1018.9
20221209172258 48 44 3.0 9.0 0.00 0.00 0.00 44 1018.9
20221209171816 48 34 4.0 7.0 0.00 0.00 0.00 44 1018.9
20221209171309 47 29 0.0 7.0 0.00 0.00 0.00 44 1018.9
20221209170802 47 34 4.0 7.0 0.00 0.00 0.00 45 1018.9
20221209170314 47 52 5.0 7.0 0.00 0.00 0.00 45 1018.9
20221209165810 46 47 4.0 9.0 0.00 0.00 0.00 45 1019.3
20221209165307 46 36 4.0 9.0 0.00 0.00 0.00 46 1019.3
20221209164800 46 41 4.0 10.0 0.00 0.00 0.00 46 1019.3
20221209164301 45 36 5.0 10.0 0.00 0.00 0.00 46 1019.0
20221209163814 45 38 3.0 12.0 0.00 0.00 0.00 46 1019.0
20221209163306 45 44 4.0 12.0 0.00 0.00 0.00 46 1019.0
20221209162758 45 39 6.0 12.0 0.00 0.00 0.00 47 1019.4
20221209162335 45 28 4.0 7.0 0.00 0.00 0.00 47 1019.4
20221209161810 44 32 3.0 11.0 0.00 0.00 0.00 47 1019.4
20221209161304 44 38 6.0 11.0 0.00 0.00 0.00 47 1019.5
20221209160801 44 32 5.0 13.0 0.00 0.00 0.00 48 1019.5
20221209160259 44 40 9.0 13.0 0.00 0.00 0.00 48 1019.5
20221209155832 44 46 5.0 11.0 0.00 0.00 0.00 49 1019.5
20221209155305 44 43 7.0 11.0 0.00 0.00 0.00 50 1019.5
20221209154817 43 28 5.0 10.0 0.00 0.00 0.00 50 1019.5
20221209154311 43 28 5.0 10.0 0.00 0.00 0.00 51 1019.1
20221209153807 43 37 3.0 8.0 0.00 0.00 0.00 51 1019.1
20221209153320 43 45 4.0 11.0 0.00 0.00 0.00 51 1019.1
20221209152812 43 45 3.0 11.0 0.00 0.00 0.00 51 1019.0
20221209152325 43 49 4.0 7.0 0.00 0.00 0.00 51 1019.0
20221209151800 43 47 4.0 7.0 0.00 0.00 0.00 51 1019.0
20221209151258 43 46 4.0 6.0 0.00 0.00 0.00 51 1019.0
20221209150831 43 43 0.0 4.0 0.00 0.00 0.00 51 1019.0
20221209150304 43 43 1.0 12.0 0.00 0.00 0.00 51 1019.0
20221209145758 43 46 3.0 12.0 0.00 0.00 0.00 51 1018.7
20221209145311 42 44 5.0 12.0 0.00 0.00 0.00 52 1018.7
20221209144824 42 39 4.0 12.0 0.00 0.00 0.00 52 1018.7
20221209144317 42 37 5.0 10.0 0.00 0.00 0.00 53 1018.8
20221209143810 42 31 4.0 11.0 0.00 0.00 0.00 53 1018.8
20221209143304 42 29 9.0 12.0 0.00 0.00 0.00 52 1018.8
20221209142821 42 18 6.0 12.0 0.00 0.00 0.00 53 1018.5
20221209142333 42 34 6.0 12.0 0.00 0.00 0.00 53 1018.5
20221209141806 42 38 6.0 12.0 0.00 0.00 0.00 54 1018.5
20221209141259 42 32 6.0 13.0 0.00 0.00 0.00 54 1018.3
20221209140812 42 38 5.0 13.0 0.00 0.00 0.00 54 1018.3
20221209140326 42 53 5.0 12.0 0.00 0.00 0.00 54 1018.3
20221209135758 42 51 4.0 7.0 0.00 0.00 0.00 54 1018.6
20221209135312 42 49 2.0 5.0 0.00 0.00 0.00 55 1018.6
20221209134805 42 49 3.0 7.0 0.00 0.00 0.00 55 1018.6
20221209134319 42 47 4.0 7.0 0.00 0.00 0.00 56 1018.5
20221209133815 42 44 4.0 5.0 0.00 0.00 0.00 57 1018.5
20221209133308 42 44 3.0 6.0 0.00 0.00 0.00 57 1018.5
20221209132802 42 32 2.0 6.0 0.00 0.00 0.00 57 1018.7
20221209132255 42 31 3.0 7.0 0.00 0.00 0.00 57 1018.7
20221209131832 42 28 3.0 9.0 0.00 0.00 0.00 57 1018.7
20221209131304 42 19 3.0 9.0 0.00 0.00 0.00 57 1018.7
20221209130758 42 15 2.0 11.0 0.00 0.00 0.00 56 1018.7
20221209130311 42 24 4.0 11.0 0.00 0.00 0.00 56 1018.7
20221209125824 42 39 4.0 11.0 0.00 0.00 0.00 56 1018.3
20221209125300 42 42 6.0 11.0 0.00 0.00 0.00 56 1018.3
20221209124834 42 41 6.0 11.0 0.00 0.00 0.00 56 1018.3
20221209124306 42 40 5.0 13.0 0.00 0.00 0.00 56 1018.3
20221209123820 42 43 5.0 13.0 0.00 0.00 0.00 56 1018.3
20221209123332 42 43 4.0 12.0 0.00 0.00 0.00 56 1018.3
20221209122806 42 41 7.0 12.0 0.00 0.00 0.00 56 1018.8
20221209122300 42 38 4.0 10.0 0.00 0.00 0.00 56 1018.8
20221209121816 42 35 4.0 10.0 0.00 0.00 0.00 57 1018.8
20221209121310 42 37 4.0 9.0 0.00 0.00 0.00 57 1018.8
20221209120808 42 36 4.0 9.0 0.00 0.00 0.00 57 1018.8
20221209120300 42 36 4.0 9.0 0.00 0.00 0.00 57 1018.8
20221209115813 42 34 3.0 9.0 0.00 0.00 0.00 58 1018.5
20221209115307 42 32 4.0 6.0 0.00 0.00 0.00 58 1018.5
20221209114801 42 30 3.0 7.0 0.00 0.00 0.00 59 1018.5
20221209114314 42 29 3.0 7.0 0.00 0.00 0.00 59 1018.8
20221209113808 42 28 2.0 7.0 0.00 0.00 0.00 60 1018.8
20221209113302 42 28 4.0 7.0 0.00 0.00 0.00 60 1018.8
20221209112759 42 20 3.0 7.0 0.00 0.00 0.00 60 1018.8
20221209112311 42 15 3.0 7.0 0.00 0.00 0.00 60 1018.8
20221209111805 42 26 4.0 7.0 0.00 0.00 0.00 60 1018.8
20221209111259 42 28 5.0 12.0 0.00 0.00 0.00 60 1018.8
20221209110812 42 28 4.0 12.0 0.00 0.00 0.00 60 1018.8
20221209110305 42 24 5.0 10.0 0.00 0.00 0.00 61 1018.8
20221209105818 42 21 5.0 10.0 0.00 0.00 0.00 61 1019.0
20221209105311 42 16 5.0 9.0 0.00 0.00 0.00 61 1019.0
20221209104808 42 13 6.0 9.0 0.00 0.00 0.00 62 1019.0
20221209104302 42 10 5.0 9.0 0.00 0.00 0.00 63 1019.4
20221209103815 42 9 5.0 8.0 0.00 0.00 0.00 63 1019.4
20221209103329 42 9 3.0 9.0 0.00 0.00 0.00 64 1019.4
20221209102822 42 5 4.0 9.0 0.00 0.00 0.00 64 1019.5
20221209102334 42 5 4.0 7.0 0.00 0.00 0.00 64 1019.5
20221209101810 42 360 3.0 7.0 0.00 0.00 0.00 65 1019.5
20221209101303 42 360 4.0 7.0 0.00 0.00 0.00 65 1019.6
20221209100837 42 360 4.0 7.0 0.00 0.00 0.00 65 1019.6
20221209100310 42 360 4.0 7.0 0.00 0.00 0.00 65 1019.6
20221209095823 42 360 4.0 6.0 0.00 0.00 0.00 65 1020.7
20221209095259 42 360 3.0 6.0 0.00 0.00 0.00 65 1020.7
20221209094812 42 360 3.0 7.0 0.00 0.00 0.00 65 1020.7
20221209094325 42 347 3.0 9.0 0.00 0.00 0.00 65 1020.4
20221209093758 42 320 3.0 9.0 0.00 0.00 0.00 65 1020.4
20221209093315 42 293 4.0 7.0 0.00 0.00 0.00 65 1020.4
20221209092808 42 284 5.0 7.0 0.00 0.00 0.00 66 1020.8
20221209092322 42 282 4.0 7.0 0.00 0.00 0.00 66 1020.8
20221209091814 42 281 3.0 6.0 0.00 0.00 0.00 66 1020.8
20221209091308 42 281 4.0 8.0 0.00 0.00 0.00 66 1020.8
20221209090805 42 281 5.0 8.0 0.00 0.00 0.00 67 1020.8
20221209090259 42 281 3.0 7.0 0.00 0.00 0.00 67 1020.8
20221209085812 42 281 2.0 11.0 0.00 0.00 0.00 67 1020.7
20221209085305 42 281 3.0 11.0 0.00 0.00 0.00 67 1020.7
20221209084802 42 281 4.0 9.0 0.00 0.00 0.00 67 1020.7
20221209084315 42 280 4.0 7.0 0.00 0.00 0.00 67 1020.7
20221209083809 42 280 3.0 7.0 0.00 0.00 0.00 68 1020.7
20221209083306 42 280 3.0 6.0 0.00 0.00 0.00 68 1020.7
20221209082802 42 280 4.0 6.0 0.00 0.00 0.00 68 1020.7
20221209082316 42 280 3.0 7.0 0.00 0.00 0.00 68 1020.7
20221209081809 42 279 3.0 7.0 0.00 0.00 0.00 69 1020.7
20221209081306 42 279 3.0 6.0 0.00 0.00 0.00 69 1020.7
20221209080759 42 279 3.0 6.0 0.00 0.00 0.00 69 1020.7
20221209080313 42 279 3.0 6.0 0.00 0.00 0.00 70 1020.7
20221209075805 42 279 4.0 6.0 0.00 0.00 0.00 70 1020.7
20221209075305 42 279 3.0 6.0 0.00 0.00 0.00 70 1020.7
20221209074836 42 279 4.0 6.0 0.00 0.00 0.00 71 1020.7
20221209074308 42 279 4.0 7.0 0.00 0.00 0.00 71 1021.1
20221209073820 42 279 4.0 7.0 0.00 0.00 0.00 72 1021.1
20221209073333 42 279 3.0 6.0 0.00 0.00 0.00 72 1021.1
20221209072805 42 279 4.0 7.0 0.00 0.00 0.00 72 1021.1
20221209072319 42 279 3.0 7.0 0.00 0.00 0.00 71 1021.1
20221209071815 42 279 4.0 7.0 0.00 0.00 0.00 71 1021.1
20221209071308 42 278 3.0 5.0 0.00 0.00 0.00 71 1021.1
20221209070805 43 277 3.0 6.0 0.00 0.00 0.00 71 1021.1
20221209070303 43 277 3.0 7.0 0.00 0.00 0.00 70 1021.1
20221209065816 43 277 4.0 7.0 0.00 0.00 0.00 70 1021.1
20221209065310 43 275 3.0 5.0 0.00 0.00 0.00 70 1021.1
20221209064806 43 275 3.0 5.0 0.00 0.00 0.00 69 1021.1
20221209064300 43 275 3.0 5.0 0.00 0.00 0.00 69 1021.4
20221209063756 43 275 2.0 5.0 0.00 0.00 0.00 69 1021.4
20221209063309 43 275 1.0 3.0 0.00 0.00 0.00 69 1021.4
20221209062806 43 275 0.0 0.0 0.00 0.00 0.00 69 1021.4
20221209062259 43 275 0.0 0.0 0.00 0.00 0.00 69 1021.4
20221209061813 43 275 0.0 0.0 0.00 0.00 0.00 69 1021.4
20221209061306 43 275 0.0 5.0 0.00 0.00 0.00 70 1021.4
20221209060803 43 275 1.0 5.0 0.00 0.00 0.00 70 1021.4
20221209060316 43 275 3.0 4.0 0.00 0.00 0.00 69 1021.4
20221209055809 43 275 3.0 5.0 0.00 0.00 0.00 69 1021.4
20221209055325 43 275 3.0 5.0 0.00 0.00 0.00 69 1021.4
20221209054801 44 275 2.0 4.0 0.00 0.00 0.00 69 1021.4
20221209054254 44 275 3.0 4.0 0.00 0.00 0.00 68 1021.4
20221209053811 44 275 3.0 4.0 0.00 0.00 0.00 68 1021.4
20221209053305 44 275 3.0 4.0 0.00 0.00 0.00 68 1021.4
20221209052758 44 275 3.0 4.0 0.00 0.00 0.00 67 1021.4
20221209052331 44 275 3.0 4.0 0.00 0.00 0.00 67 1021.4
20221209051823 45 275 3.0 4.0 0.00 0.00 0.00 67 1021.4
20221209051316 45 275 3.0 4.0 0.00 0.00 0.00 67 1021.3
20221209050809 45 275 3.0 4.0 0.00 0.00 0.00 66 1021.3
20221209050307 45 275 3.0 4.0 0.00 0.00 0.00 66 1021.3
20221209045801 45 275 3.0 4.0 0.00 0.00 0.00 66 1021.2
20221209045314 45 275 3.0 4.0 0.00 0.00 0.00 66 1021.2
20221209044807 45 274 3.0 4.0 0.00 0.00 0.00 66 1021.2
20221209044303 45 274 3.0 4.0 0.00 0.00 0.00 66 1021.2
20221209043756 45 274 3.0 4.0 0.00 0.00 0.00 65 1021.2
20221209043331 45 274 3.0 4.0 0.00 0.00 0.00 65 1021.2
20221209042823 46 274 3.0 4.0 0.00 0.00 0.00 64 1021.1
20221209042315 46 274 3.0 4.0 0.00 0.00 0.00 64 1021.1
20221209041812 46 274 3.0 4.0 0.00 0.00 0.00 63 1021.1
20221209041306 46 273 2.0 4.0 0.00 0.00 0.00 62 1021.1
20221209040759 47 273 2.0 4.0 0.00 0.00 0.00 62 1021.1
20221209040333 47 273 2.0 3.0 0.00 0.00 0.00 61 1021.1
20221209035804 47 273 2.0 4.0 0.00 0.00 0.00 61 1021.2
20221209035258 47 273 2.0 4.0 0.00 0.00 0.00 60 1021.2
20221209034811 47 273 0.0 3.0 0.00 0.00 0.00 60 1021.2
20221209034305 47 273 2.0 3.0 0.00 0.00 0.00 59 1021.2
20221209033802 48 273 2.0 3.0 0.00 0.00 0.00 59 1021.2
20221209033336 48 273 0.0 2.0 0.00 0.00 0.00 59 1021.2
20221209032808 48 273 0.0 3.0 0.00 0.00 0.00 58 1021.3
20221209032302 48 273 2.0 3.0 0.00 0.00 0.00 58 1021.3
20221209031815 48 273 0.0 3.0 0.00 0.00 0.00 57 1021.3
20221209031309 49 273 2.0 3.0 0.00 0.00 0.00 57 1021.1
20221209030803 49 273 0.0 3.0 0.00 0.00 0.00 57 1021.1
20221209030300 49 273 2.0 4.0 0.00 0.00 0.00 56 1021.1
20221209025811 49 273 2.0 4.0 0.00 0.00 0.00 56 1020.9
20221209025309 49 273 2.0 3.0 0.00 0.00 0.00 55 1020.9
20221209024805 50 273 2.0 3.0 0.00 0.00 0.00 54 1020.9
20221209024259 50 273 0.0 2.0 0.00 0.00 0.00 54 1021.2
20221209023835 50 273 2.0 2.0 0.00 0.00 0.00 53 1021.2
20221209023308 50 273 0.0 2.0 0.00 0.00 0.00 52 1021.2
20221209022801 51 273 0.0 2.0 0.00 0.00 0.00 52 1021.2
20221209022334 51 273 2.0 2.0 0.00 0.00 0.00 52 1021.2
20221209021806 51 273 0.0 0.0 0.00 0.00 0.00 51 1021.2
20221209021304 51 273 0.0 0.0 0.00 0.00 0.00 50 1021.0
20221209020757 52 273 0.0 0.0 0.00 0.00 0.00 50 1021.0
20221209020330 52 273 0.0 0.0 0.00 0.00 0.00 50 1021.0
20221209015803 52 273 0.0 2.0 0.00 0.00 0.00 49 1020.8
20221209015316 52 273 0.0 2.0 0.00 0.00 0.00 49 1020.8
20221209014811 52 273 2.0 2.0 0.00 0.00 0.00 49 1020.8
20221209014307 53 273 0.0 1.0 0.00 0.00 0.00 48 1020.9
20221209013800 53 273 0.0 1.0 0.00 0.00 0.00 47 1020.9
20221209013317 53 273 0.0 0.0 0.00 0.00 0.00 46 1020.9
20221209012810 53 273 0.0 0.0 0.00 0.00 0.00 46 1021.1
20221209012327 53 273 0.0 0.0 0.00 0.00 0.00 46 1021.1
20221209011803 54 273 0.0 0.0 0.00 0.00 0.00 45 1021.1
20221209011336 54 273 0.0 0.0 0.00 0.00 0.00 45 1021.0
20221209010808 54 273 0.0 0.0 0.00 0.00 0.00 44 1021.0
20221209010302 55 273 0.0 0.0 0.00 0.00 0.00 44 1021.0
20221209005758 55 273 0.0 0.0 0.00 0.00 0.00 43 1020.9
20221209005312 55 273 0.0 0.0 0.00 0.00 0.00 43 1020.9
20221209004805 55 273 0.0 0.0 0.00 0.00 0.00 42 1020.9
20221209004303 56 273 0.0 0.0 0.00 0.00 0.00 42 1020.8
20221209003756 56 273 0.0 1.0 0.00 0.00 0.00 41 1020.8
20221209003309 57 273 0.0 1.0 0.00 0.00 0.00 41 1020.8
20221209002824 57 273 0.0 0.0 0.00 0.00 0.00 40 1020.8
20221209002300 58 273 0.0 0.0 0.00 0.00 0.00 40 1020.8
20221209001813 58 273 0.0 0.0 0.00 0.00 0.00 39 1020.8
20221209001307 58 273 0.0 0.0 0.00 0.00 0.00 39 1020.9
20221209000801 59 273 0.0 1.0 0.00 0.00 0.00 38 1020.9
20221209000301 59 273 0.0 1.0 0.00 0.00 0.00 38 1020.9
20221208235812 59 273 0.0 2.0 0.00 0.00 0.00 37 1020.9
20221208235306 60 273 0.0 4.0 0.00 0.00 0.00 37 1020.9
20221208234818 60 273 0.0 7.0 0.00 0.00 0.00 36 1020.9
20221208234314 60 273 3.0 10.0 0.00 0.00 0.00 36 1020.9
20221208233807 60 273 0.0 10.0 0.00 0.00 0.00 36 1020.9
20221208233321 60 273 1.0 7.0 0.00 0.00 0.00 35 1020.9
20221208232813 61 273 1.0 10.0 0.00 0.00 0.00 35 1020.9
20221208232307 61 273 2.0 10.0 0.00 0.00 0.00 35 1020.9
20221208231803 61 273 0.0 13.0 0.00 0.00 0.00 35 1020.9
20221208231300 61 273 4.0 13.0 0.00 0.00 0.00 34 1021.0
20221208230753 61 273 0.0 10.0 0.00 0.00 0.00 34 1021.0
20221208230310 62 273 2.0 13.0 0.00 0.00 0.00 33 1021.0
20221208225806 62 273 7.0 14.0 0.00 0.00 0.00 33 1020.9
20221208225259 62 273 6.0 14.0 0.00 0.00 0.00 32 1020.9
20221208224836 63 274 7.0 11.0 0.00 0.00 0.00 32 1020.9
20221208224308 63 273 4.0 11.0 0.00 0.00 0.00 31 1020.9
20221208223806 63 273 2.0 12.0 0.00 0.00 0.00 31 1020.9
20221208223258 63 273 7.0 15.0 0.00 0.00 0.00 30 1020.9
20221208222812 63 274 8.0 15.0 0.00 0.00 0.00 30 1020.8
20221208222306 63 274 8.0 13.0 0.00 0.00 0.00 31 1020.8